ALOUETTE 1 (S-27) 1 00424U 62049A 12033.96926468 .00000069 00000-0 69202-4 0 8559 2 00424 80.4630 45.7667 0024407 90.2893 270.1053 13.68805551463133 IUE 1 10637U 78012A 12032.37653024 -.00000274 00000-0 10000-3 0 7641 2 10637 43.8084 2.6573 1489322 171.8329 190.9347 1.00057291 77056 IRAS 1 13777U 83004A 12034.52646075 -.00000135 00000-0 -61883-4 0 7770 2 13777 99.0284 232.3500 0020002 69.0678 291.2624 14.00136367152122 AKEBONO (EXOS-D) 1 19822U 89016A 12034.42568047 .00026135 47366-6 76016-3 0 883 2 19822 75.0898 157.6097 2536656 289.3285 45.1983 10.34035982692716 INTERCOSMOS 24 1 20261U 89080A 12034.54139406 .00000236 00000-0 71221-4 0 6757 2 20261 82.5918 198.5532 1212339 291.7273 55.9177 12.53841769 20036 COBE 1 20322U 89089A 12034.84938605 -.00000080 00000-0 -22576-4 0 6821 2 20322 99.0043 43.5200 0008476 331.7795 28.2906 14.04475893138150 HST 1 20580U 90037B 12033.80363283 .00001564 00000-0 10354-3 0 9369 2 20580 28.4724 309.2623 0003558 58.6018 301.4443 15.02156561994359 CRRES 1 20712U 90065A 12034.33555996 -.00000076 00000-0 66143-3 0 3987 2 20712 18.1324 30.6761 7130351 90.9754 343.9346 2.43399341180469 SARA 1 21578U 91050E 12034.51019408 .00000550 00000-0 14974-3 0 3516 2 21578 98.3541 6.3214 0003377 100.1088 260.0487 14.51156042 83792 SAMPEX 1 22012U 92038A 12034.87158331 .00031473 00000-0 40300-3 0 7621 2 22012 81.6337 279.1215 0030113 105.1339 255.3239 15.58459003 82777 ORBVIEW 1 (MICROLAB) 1 23547U 95017C 12034.76327493 .00000498 00000-0 12699-3 0 7892 2 23547 69.9776 97.0855 0013019 315.2527 44.7556 14.56277607892555 RXTE (XTE) 1 23757U 95074A 12034.10301831 .00004320 00000-0 11552-3 0 5707 2 23757 22.9902 10.5452 0007851 176.5950 183.4628 15.33171796893028 POLAR 1 23802U 96013A 12034.11026742 .00000005 00000-0 10000-3 0 2034 2 23802 82.6433 311.1324 6414823 41.9019 352.3650 1.29845433 76714 FAST 1 24285U 96049A 12034.81608916 .00004082 00000-0 35018-3 0 3929 2 24285 82.9705 293.7612 1974230 133.0696 245.3576 11.31663481626963 TRACE 1 25280U 98020A 12033.93100387 .00002069 00000-0 16643-3 0 1189 2 25280 97.6070 239.4761 0024608 242.6665 117.2054 15.00867084755018 SAFIR 2 1 25399U 98043F 12034.57266358 .00000230 00000-0 11790-3 0 1318 2 25399 98.3204 27.2183 0000925 229.4160 130.6942 14.24065899705172 SWAS 1 25560U 98071A 12034.78082256 .00001181 00000-0 13772-3 0 7982 2 25560 69.9014 131.2955 0011660 249.6643 110.3257 14.88011853713338 ASTRID 2 1 25568U 98072B 12034.42130145 .00000058 00000-0 47242-4 0 9011 2 25568 82.9479 351.5963 0023346 268.5034 91.3446 13.72108375658479 ORSTED 1 25635U 99008B 12034.82773882 .00000588 00000-0 15232-3 0 4253 2 25635 96.4547 13.4158 0143128 12.7632 347.7117 14.46243902682708 SUNSAT (SO-35) 1 25636U 99008C 12034.89246849 .00000224 00000-0 65232-4 0 1260 2 25636 96.4611 3.8144 0149059 56.7295 304.8080 14.43698608681842 ABRIXAS 1 25721U 99022A 12034.64469302 .00004816 00000-0 20535-3 0 3275 2 25721 48.4610 123.7823 0018002 281.3441 78.5483 15.24458912706854 TERRIERS 1 25735U 99026A 12034.81834245 .00002445 00000-0 96188-4 0 5080 2 25735 97.1042 240.2436 0005328 249.8026 110.2645 15.26531712705405 FUSE 1 1 25791U 99035A 12034.56002939 .00000277 00000-0 29049-4 0 1765 2 25791 24.9856 193.8452 0010691 294.0481 65.8912 14.41982778665297 CXO 1 25867U 99040B 12034.04166667 -.00000796 00000-0 00000+0 0 6973 2 25867 71.2763 14.8814 8738014 277.7945 356.8743 0.37799408 8645 CLEMENTINE 1 25978U 99064B 12034.25918352 .00001736 00000-0 19972-3 0 5145 2 25978 98.1119 142.7791 0009274 235.3039 124.7333 14.87102777658635 XMM-NEWTON 1 25989U 99066A 12032.25000000 .00000113 00000-0 10000-3 0 1449 2 25989 62.7451 81.7084 6656184 98.3436 350.7298 0.50134059 11044 TERRA 1 25994U 99068A 12034.82682894 -.00000722 00000-0 -15042-3 0 6904 2 25994 98.2065 110.8164 0000968 89.0175 271.1081 14.57087839645192 ACRIMSAT 1 26033U 99070B 12033.64966790 .00000159 00000-0 41346-4 0 4638 2 26033 97.8470 248.7137 0029574 56.2450 304.1559 14.60853473645757 IMAGE 1 26113U 00017A 12033.26827468 .00000122 00000-0 10000-3 0 1848 2 26113 93.1558 223.4847 7649906 174.7085 205.6980 1.68633521 73015 CLUSTER II-FM6 (SALSA) 1 26410U 00041A 12033.58333333 .00002198 00000-0 00000-0 0 7570 2 26410 140.6921 277.1320 8556808 95.2133 355.7737 0.44225593 8822 CLUSTER II-FM7 (SAMBA) 1 26411U 00041B 12033.58333333 .00002199 00000-0 00000-0 0 7550 2 26411 140.6951 277.1136 8556961 95.2009 355.7812 0.44226580 8903 CLUSTER II-FM5 (RUMBA) 1 26463U 00045A 12033.58333333 .00002292 00000-0 00000-0 0 7454 2 26463 142.9496 272.6499 8458864 91.2315 355.7620 0.44226258 9405 CLUSTER II-FM8 (TANGO) 1 26464U 00045B 12033.59303163 .00000000 00000-0 10000-3 0 7329 2 26464 141.4943 268.3091 8897575 87.8257 355.6880 0.44226674 8788 MEGSAT-1 1 26546U 00057B 12034.29829181 .00001166 00000-0 15131-3 0 4965 2 26546 64.5594 330.7865 0034703 311.3180 48.4941 14.85324676614854 HETE-2 1 26561U 00061A 12033.16292951 .00002535 00000-0 14095-3 0 7244 2 26561 1.9479 317.0612 0022778 161.4261 198.6574 14.97859221619160 MUNIN 1 26621U 00075C 12034.90533325 .00000922 00000-0 83732-3 0 3026 2 26621 95.4213 311.4900 0717879 82.0214 286.1682 13.03839094533023 ODIN 1 26702U 01007A 12034.81075623 .00002329 00000-0 20491-3 0 5392 2 26702 97.6599 52.5498 0005079 116.7879 243.3819 14.97459204597249 TIMED 1 26998U 01055B 12034.14645132 .00000260 00000-0 34938-4 0 980 2 26998 74.0718 248.9398 0000949 135.8563 224.2686 14.84785316550095 RHESSI 1 27370U 02004A 12034.82610985 .00003021 00000-0 21384-3 0 7719 2 27370 38.0394 268.3822 0014570 232.6558 127.2868 15.05373869548476 INTEGRAL 1 27540U 02048A 12032.20833333 .00000532 00000-0 10000-3 0 1227 2 27540 70.6256 297.8971 8912561 250.0177 356.3292 0.33415208 7501 FEDSAT 1 27598U 02056B 12034.56036405 .00000039 00000-0 31928-4 0 5910 2 27598 98.2647 55.6673 0008136 278.6673 81.3581 14.28131198476458 WEOS 1 27599U 02056C 12034.08804647 .00000099 00000-0 55502-4 0 5885 2 27599 98.2730 63.4497 0009155 290.2560 69.7648 14.28725625476560 MICRO LABSAT 1 27600U 02056D 12034.89637355 -.00000007 00000-0 13404-4 0 5602 2 27600 98.2656 63.5211 0010149 289.5919 70.4168 14.28999857476789 CORIOLIS 1 27640U 03001A 12034.42317790 .00000143 00000-0 90204-4 0 7889 2 27640 98.7561 42.8254 0014305 174.0945 186.0415 14.18483832469922 CHIPSAT 1 27643U 03002B 12034.62304544 .00001917 00000-0 15977-3 0 9568 2 27643 94.0184 84.1985 0009032 268.6540 91.3656 14.98917898494865 SORCE 1 27651U 03004A 12034.04609968 .00000928 00000-0 12653-3 0 7111 2 27651 39.9973 50.6915 0026109 191.1513 168.8724 14.83281088488928 GALEX 1 27783U 03017A 12034.70139613 .00000426 00000-0 65401-4 0 4209 2 27783 28.9980 166.2352 0004103 186.3598 173.6992 14.60231344468416 MOST 1 27843U 03031D 12034.21572644 .00000016 00000-0 28043-4 0 3095 2 27843 98.7179 43.2464 0009129 265.1941 94.8199 14.20218264445585 QUAKESAT 1 27845U 03031F 12034.89412834 .00000286 00000-0 15326-3 0 3273 2 27845 98.7145 44.9734 0008256 272.4974 87.5256 14.20667131445691 AAU CUBESAT 1 27846U 03031G 12034.54381566 .00000191 00000-0 10762-3 0 2018 2 27846 98.6960 45.4095 0008391 226.7652 133.2821 14.21234913445884 SCISAT 1 1 27858U 03036A 12034.49357421 .00000281 00000-0 46716-4 0 5396 2 27858 73.9354 91.7574 0009669 284.4316 75.5716 14.75237658456446 KAISTSAT 4 1 27945U 03042G 12034.47093924 .00000163 00000-0 40008-4 0 4782 2 27945 97.8213 242.9003 0012196 346.6376 13.4502 14.63426340446151 GP-B 1 28230U 04014A 12034.23991624 .00000557 00000-0 77927-4 0 3313 2 28230 89.9205 150.1367 0002468 60.1890 299.9580 14.76463709419549 DEMETER 1 28368U 04025C 12034.81116229 .00000628 00000-0 10925-3 0 5787 2 28368 97.8826 91.0393 0002313 90.0991 270.0468 14.71330571407045 DOUBLESTAR (TC-2) 1 28382U 04029A 12033.35812016 -.00000029 00000-0 10000-3 0 68 2 28382 88.7674 325.8630 7264216 112.4335 335.1799 2.15594843 58088 SWIFT 1 28485U 04047A 12034.21134878 .00001988 00000-0 14290-3 0 790 2 28485 20.5575 73.7673 0013811 113.7384 246.4525 14.94320527393489 SUZAKU (ASTRO-EII) 1 28773U 05025A 12034.85153445 .00002183 00000-0 15285-3 0 6898 2 28773 31.4065 292.0387 0007157 295.4870 64.5029 15.03035769360851 AKARI (ASTRO-F) 1 28939U 06005A 12034.89597082 .00005695 00000-0 32971-3 0 8012 2 28939 98.2533 50.9909 0183919 359.3708 0.7252 14.99464450316520 FORMOSAT-3 FM6 1 29047U 06011A 12034.46146493 .00000420 00000-0 18568-3 0 7183 2 29047 71.9769 224.4357 0052840 289.3447 70.1993 14.27386786304879 FORMOSAT-3 FM1 1 29048U 06011B 12034.47587077 .00000392 00000-0 17471-3 0 8015 2 29048 71.9700 138.7328 0046692 242.9985 116.6363 14.27402781307357 FORMOSAT-3 FM5 1 29049U 06011C 12033.99444539 .00000363 00000-0 16364-3 0 7441 2 29049 72.0234 294.1529 0036847 295.4458 64.2863 14.27415480303068 FORMOSAT-3 FM3 1 29050U 06011D 12033.88407016 .00001124 00000-0 26646-3 0 612 2 29050 72.0173 24.2995 0051713 111.7405 248.9256 14.55101577310911 FORMOSAT-3 FM4 1 29051U 06011E 12034.37936810 .00000375 00000-0 16522-3 0 7994 2 29051 72.0059 200.7457 0069792 168.6117 191.6624 14.27411781305700 FORMOSAT-3 FM2 1 29052U 06011F 12034.13488251 .00000362 00000-0 16273-3 0 8204 2 29052 72.0360 266.3641 0042681 264.0537 95.5732 14.27451244303971 CLOUDSAT 1 29107U 06016A 12033.89092263 .00000372 00000-0 89600-4 0 8202 2 29107 98.2211 338.9378 0007695 163.8054 196.3402 14.58787561306803 CALIPSO 1 29108U 06016B 12034.29788439 .00000839 00000-0 19644-3 0 8450 2 29108 98.2197 338.9270 0000978 89.2301 270.9015 14.57069899306817 HINODE (SOLAR-B) 1 29479U 06041A 12034.15370509 .00000339 00000-0 74580-4 0 6925 2 29479 98.1093 35.8894 0014466 256.6048 103.3541 14.63411925286494 SJ-6C 1 29505U 06046A 12034.77103603 .00000915 00000-0 97280-4 0 9023 2 29505 97.7162 33.0310 0004331 111.2472 248.9193 14.91328178287359 SJ-6D 1 29506U 06046B 12034.73026613 .00000434 00000-0 49919-4 0 8813 2 29506 97.7240 31.6505 0002484 148.9502 211.1856 14.90566138287217 COROT 1 29678U 06063A 12034.48663243 .00000195 00000-0 12917-3 0 6921 2 29678 90.0070 10.1166 0006250 36.1948 323.9653 13.98247884260439 AIM 1 31304U 07015A 12034.31399688 .00002807 00000-0 26257-3 0 6024 2 31304 97.8244 143.0902 0009883 272.0956 87.9162 14.94899818260197 FGRST (GLAST) 1 33053U 08029A 12033.20828694 .00000280 00000-0 00000+0 0 9765 2 33053 25.5831 350.7862 0012847 342.2586 17.7560 15.05989906200698 KORONAS-FOTON 1 33504U 09003A 12034.64815076 .00001074 00000-0 69796-4 0 3306 2 33504 82.4775 7.4959 0016967 45.9788 69.9123 15.06887595165381 TATIANA 2 1 35868U 09049D 12034.76861238 .00000059 00000-0 46066-4 0 1557 2 35868 98.6734 91.8655 0005092 71.6799 288.4930 14.22231638123527 UGATUSAT 1 35869U 09049E 12034.71217152 .00000012 00000-0 25016-4 0 1183 2 35869 98.6708 91.4603 0005429 82.7551 277.4235 14.22052782123506 SUMBANDILA (SO-67) 1 35870U 09049F 12034.77990566 .00003160 00000-0 13849-3 0 6483 2 35870 97.2520 75.2373 0000783 337.8242 135.1130 15.22700674132154 WISE 1 36119U 09071A 12034.88697494 .00001744 00000-0 97389-4 0 6210 2 36119 97.5175 40.9007 0003234 357.3019 2.8195 15.14834897118157 SDO 1 36395U 10005A 12034.07556611 -.00000041 00000-0 00000+0 0 4342 2 36395 27.8469 176.5329 0001598 310.6994 290.8440 1.00270275 7437 CRYOSAT 2 1 36508U 10013A 12034.61388437 .00000003 00000-0 00000+0 0 5625 2 36508 92.0263 88.1405 0010389 159.6596 200.5044 14.52177323 96650 PICARD 1 36598U 10028A 12034.74924519 .00000160 00000-0 52897-4 0 7780 2 36598 98.2866 221.6923 0001386 194.9028 165.2125 14.49580493 86641 SPEKTR-R 1 37755U 11037A 12022.32569444 -.00002835 00000-0 10000-3 0 234 2 37755 75.8255 304.8795 7653113 318.5580 1.2778 0.11264459 235